Time,TemperatureF,DewpointF,PressureIn,WindDirection,WindDirectionDegrees,WindSpeedMPH,WindSpeedGustMPH,Humidity,HourlyPrecipIn,Conditions,Clouds,dailyrainin,SoftwareType,DateUTC
2014-03-14 00:01:00,20.0,5.6,30.02,WNW,292,3.0,6.0,53,0.00,,---,0.00,VWS V14.01,2014-03-14 04:01:00,
2014-03-14 00:02:00,20.0,6.0,30.02,WNW,292,6.0,8.0,54,0.00,,---,0.00,VWS V14.01,2014-03-14 04:02:00,
2014-03-14 00:04:00,20.0,6.0,30.02,SW,225,2.0,9.0,54,0.00,,---,0.00,VWS V14.01,2014-03-14 04:04:00,
2014-03-14 00:09:00,20.0,6.4,30.02,WSW,248,4.0,9.0,55,0.00,,---,0.00,VWS V14.01,2014-03-14 04:09:00,
2014-03-14 00:14:00,21.0,7.4,30.02,West,270,6.0,9.0,55,0.00,,---,0.00,VWS V14.01,2014-03-14 04:14:00,
2014-03-14 00:19:00,21.0,7.8,30.02,SW,225,6.0,9.0,56,0.00,,---,0.00,VWS V14.01,2014-03-14 04:19:00,
2014-03-14 00:24:00,21.0,7.8,30.02,SSW,202,5.0,7.0,56,0.00,,---,0.00,VWS V14.01,2014-03-14 04:24:00,
2014-03-14 00:29:00,21.0,7.4,30.01,West,270,2.0,7.0,55,0.00,,---,0.00,VWS V14.01,2014-03-14 04:29:00,
2014-03-14 00:34:00,21.0,7.8,30.01,WSW,248,6.0,8.0,56,0.00,,---,0.00,VWS V14.01,2014-03-14 04:34:00,
2014-03-14 00:39:00,21.0,7.8,30.01,WSW,248,7.0,9.0,56,0.00,,---,0.00,VWS V14.01,2014-03-14 04:39:00,
2014-03-14 00:45:00,21.0,8.2,30.01,WSW,248,7.0,8.0,57,0.00,,---,0.00,VWS V14.01,2014-03-14 04:45:00,
2014-03-14 00:50:00,21.0,8.2,30.01,WSW,248,3.0,8.0,57,0.00,,---,0.00,VWS V14.01,2014-03-14 04:50:00,
2014-03-14 00:55:00,21.0,8.2,30.01,SW,225,3.0,8.0,57,0.00,,---,0.00,VWS V14.01,2014-03-14 04:55:00,
2014-03-14 01:00:00,21.0,8.6,30.01,WSW,248,5.0,8.0,58,0.00,,---,0.00,VWS V14.01,2014-03-14 05:00:00,
2014-03-14 01:05:00,21.0,8.6,30.00,SW,225,3.0,7.0,58,0.00,,---,0.00,VWS V14.01,2014-03-14 05:05:00,
2014-03-14 01:10:00,21.0,8.2,30.00,SW,225,5.0,8.0,57,0.00,,---,0.00,VWS V14.01,2014-03-14 05:10:00,
2014-03-14 01:15:00,21.0,8.6,30.00,WSW,248,1.0,8.0,58,0.00,,---,0.00,VWS V14.01,2014-03-14 05:15:00,
2014-03-14 01:20:00,21.0,8.9,30.00,SSW,202,5.0,5.0,59,0.00,,---,0.00,VWS V14.01,2014-03-14 05:20:00,
2014-03-14 01:25:00,22.0,9.5,30.00,WSW,248,5.0,8.0,58,0.00,,---,0.00,VWS V14.01,2014-03-14 05:25:00,
2014-03-14 01:30:00,22.0,9.5,30.01,WSW,248,4.0,9.0,58,0.00,,---,0.00,VWS V14.01,2014-03-14 05:30:00,
2014-03-14 01:36:00,22.0,9.9,30.00,SW,225,7.0,9.0,59,0.00,,---,0.00,VWS V14.01,2014-03-14 05:36:00,
2014-03-14 01:41:00,22.0,10.2,30.00,SSW,202,2.0,7.0,60,0.00,,---,0.00,VWS V14.01,2014-03-14 05:41:00,
2014-03-14 01:46:00,22.0,10.2,30.00,WSW,248,6.0,7.0,60,0.00,,---,0.00,VWS V14.01,2014-03-14 05:46:00,
2014-03-14 01:51:00,22.0,10.2,30.00,WSW,248,6.0,10.0,60,0.00,,---,0.00,VWS V14.01,2014-03-14 05:51:00,
2014-03-14 01:56:00,22.0,10.6,30.00,WSW,248,3.0,11.0,61,0.00,,---,0.00,VWS V14.01,2014-03-14 05:56:00,
2014-03-14 02:01:00,22.0,11.0,30.00,WNW,292,5.0,8.0,62,0.00,,---,0.00,VWS V14.01,2014-03-14 06:01:00,
2014-03-14 02:06:00,22.0,11.4,30.00,West,270,5.0,10.0,63,0.00,,---,0.00,VWS V14.01,2014-03-14 06:06:00,
2014-03-14 02:11:00,23.0,12.6,30.00,WNW,292,3.0,10.0,64,0.00,,---,0.00,VWS V14.01,2014-03-14 06:11:00,
2014-03-14 02:16:00,22.0,12.1,30.00,WSW,248,6.0,10.0,65,0.00,,---,0.00,VWS V14.01,2014-03-14 06:16:00,
2014-03-14 02:21:00,23.0,13.0,30.00,SW,225,4.0,7.0,65,0.00,,---,0.00,VWS V14.01,2014-03-14 06:21:00,
2014-03-14 02:26:00,23.0,13.0,30.00,SSW,202,3.0,7.0,65,0.00,,---,0.00,VWS V14.01,2014-03-14 06:26:00,
2014-03-14 02:32:00,23.0,13.0,30.00,WSW,248,3.0,8.0,65,0.00,,---,0.00,VWS V14.01,2014-03-14 06:32:00,
2014-03-14 02:37:00,23.0,13.0,29.99,SSW,202,5.0,8.0,65,0.00,,---,0.00,VWS V14.01,2014-03-14 06:37:00,
2014-03-14 02:42:00,23.0,13.0,29.99,SSW,202,4.0,6.0,65,0.00,,---,0.00,VWS V14.01,2014-03-14 06:42:00,
2014-03-14 02:47:00,23.0,13.0,29.99,SSW,202,5.0,8.0,65,0.00,,---,0.00,VWS V14.01,2014-03-14 06:47:00,
2014-03-14 02:52:00,23.0,13.0,29.99,WSW,248,4.0,8.0,65,0.00,,---,0.00,VWS V14.01,2014-03-14 06:52:00,
2014-03-14 02:57:00,23.0,13.0,29.99,SW,225,3.0,8.0,65,0.00,,---,0.00,VWS V14.01,2014-03-14 06:57:00,
2014-03-14 03:02:00,24.0,14.0,29.99,SW,225,3.0,6.0,65,0.00,,---,0.00,VWS V14.01,2014-03-14 07:02:00,
2014-03-14 03:07:00,24.0,14.0,29.98,SW,225,3.0,6.0,65,0.00,,---,0.00,VWS V14.01,2014-03-14 07:07:00,
2014-03-14 03:12:00,24.0,14.0,29.98,SSE,158,3.0,14.0,65,0.00,,---,0.00,VWS V14.01,2014-03-14 07:12:00,
2014-03-14 03:17:00,24.0,13.6,29.98,South,180,4.0,14.0,64,0.00,,---,0.00,VWS V14.01,2014-03-14 07:17:00,
2014-03-14 03:23:00,24.0,13.6,29.98,SW,225,3.0,5.0,64,0.00,,---,0.00,VWS V14.01,2014-03-14 07:23:00,
2014-03-14 03:28:00,24.0,14.0,29.97,SW,225,1.0,5.0,65,0.00,,---,0.00,VWS V14.01,2014-03-14 07:28:00,
2014-03-14 03:33:00,24.0,14.0,29.97,SSE,158,2.0,5.0,65,0.00,,---,0.00,VWS V14.01,2014-03-14 07:33:00,
2014-03-14 03:38:00,24.0,13.6,29.97,West,270,3.0,5.0,64,0.00,,---,0.00,VWS V14.01,2014-03-14 07:38:00,
2014-03-14 03:43:00,24.0,13.6,29.97,SW,225,3.0,6.0,64,0.00,,---,0.00,VWS V14.01,2014-03-14 07:43:00,
2014-03-14 03:48:00,25.0,14.6,29.97,SSW,202,7.0,7.0,64,0.00,,---,0.00,VWS V14.01,2014-03-14 07:48:00,
2014-03-14 03:53:00,25.0,14.6,29.96,SW,225,2.0,8.0,64,0.00,,---,0.00,VWS V14.01,2014-03-14 07:53:00,
2014-03-14 03:58:00,25.0,14.2,29.96,SW,225,5.0,11.0,63,0.00,,---,0.00,VWS V14.01,2014-03-14 07:58:00,
2014-03-14 04:03:00,25.0,14.2,29.96,SSW,202,4.0,10.0,63,0.00,,---,0.00,VWS V14.01,2014-03-14 08:03:00,
2014-03-14 04:08:00,26.0,15.1,29.96,SSE,158,6.0,10.0,63,0.00,,---,0.00,VWS V14.01,2014-03-14 08:08:00,
2014-03-14 04:14:00,26.0,14.8,29.96,SSW,202,4.0,10.0,62,0.00,,---,0.00,VWS V14.01,2014-03-14 08:14:00,
2014-03-14 04:19:00,26.0,14.8,29.96,SW,225,3.0,10.0,62,0.00,,---,0.00,VWS V14.01,2014-03-14 08:19:00,
2014-03-14 04:24:00,26.0,14.8,29.96,SW,225,5.0,8.0,62,0.00,,---,0.00,VWS V14.01,2014-03-14 08:24:00,
2014-03-14 04:29:00,26.0,14.8,29.96,South,180,5.0,13.0,62,0.00,,---,0.00,VWS V14.01,2014-03-14 08:29:00,
2014-03-14 04:34:00,26.0,14.4,29.96,SSW,202,7.0,14.0,61,0.00,,---,0.00,VWS V14.01,2014-03-14 08:34:00,
2014-03-14 04:39:00,27.0,15.4,29.95,SW,225,9.0,15.0,61,0.00,,---,0.00,VWS V14.01,2014-03-14 08:39:00,
2014-03-14 04:44:00,27.0,15.4,29.95,SW,225,8.0,10.0,61,0.00,,---,0.00,VWS V14.01,2014-03-14 08:44:00,
2014-03-14 04:49:00,27.0,15.4,29.95,South,180,6.0,11.0,61,0.00,,---,0.00,VWS V14.01,2014-03-14 08:49:00,
2014-03-14 04:54:00,27.0,15.4,29.95,SW,225,5.0,11.0,61,0.00,,---,0.00,VWS V14.01,2014-03-14 08:54:00,
2014-03-14 04:59:00,27.0,15.4,29.94,SW,225,4.0,11.0,61,0.00,,---,0.00,VWS V14.01,2014-03-14 08:59:00,
2014-03-14 05:04:00,27.0,15.4,29.94,SSW,202,5.0,17.0,61,0.00,,---,0.00,VWS V14.01,2014-03-14 09:04:00,
2014-03-14 05:10:00,27.0,15.4,29.94,SE,135,4.0,18.0,61,0.00,,---,0.00,VWS V14.01,2014-03-14 09:10:00,
2014-03-14 05:15:00,27.0,15.4,29.94,SW,225,4.0,18.0,61,0.00,,---,0.00,VWS V14.01,2014-03-14 09:15:00,
2014-03-14 05:20:00,27.0,15.4,29.94,SW,225,3.0,18.0,61,0.00,,---,0.00,VWS V14.01,2014-03-14 09:20:00,
2014-03-14 05:25:00,27.0,15.4,29.94,SSE,158,2.0,11.0,61,0.00,,---,0.00,VWS V14.01,2014-03-14 09:25:00,
2014-03-14 05:30:00,27.0,15.4,29.94,WSW,248,4.0,11.0,61,0.00,,---,0.00,VWS V14.01,2014-03-14 09:30:00,
2014-03-14 05:35:00,27.0,15.4,29.94,SE,135,6.0,13.0,61,0.00,,---,0.00,VWS V14.01,2014-03-14 09:35:00,
2014-03-14 05:40:00,27.0,15.4,29.93,SE,135,3.0,4.0,61,0.00,,---,0.00,VWS V14.01,2014-03-14 09:40:00,
2014-03-14 05:45:00,27.0,15.7,29.94,SW,225,3.0,10.0,62,0.00,,---,0.00,VWS V14.01,2014-03-14 09:45:00,
2014-03-14 05:50:00,27.0,15.7,29.94,SSE,158,5.0,10.0,62,0.00,,---,0.00,VWS V14.01,2014-03-14 09:50:00,
2014-03-14 05:55:00,27.0,15.4,29.93,East,90,5.0,10.0,61,0.00,,---,0.00,VWS V14.01,2014-03-14 09:55:00,
2014-03-14 06:01:00,27.0,15.7,29.94,WNW,292,1.0,1.0,62,0.00,,---,0.00,VWS V14.01,2014-03-14 10:01:00,
2014-03-14 06:06:00,27.0,15.7,29.93,SSE,158,6.0,10.0,62,0.00,,---,0.00,VWS V14.01,2014-03-14 10:06:00,
2014-03-14 06:11:00,27.0,15.7,29.94,WSW,248,5.0,10.0,62,0.00,,---,0.00,VWS V14.01,2014-03-14 10:11:00,
2014-03-14 06:16:00,28.0,16.7,29.93,ESE,112,3.0,10.0,62,0.00,,---,0.00,VWS V14.01,2014-03-14 10:16:00,
2014-03-14 06:21:00,28.0,16.7,29.93,NNE,22,1.0,3.0,62,0.00,,---,0.00,VWS V14.01,2014-03-14 10:21:00,
2014-03-14 06:30:00,28.0,16.7,29.93,WSW,248,0.0,0.0,62,0.00,,---,0.00,VWS V14.01,2014-03-14 10:30:00,
2014-03-14 06:35:00,28.0,16.3,29.93,SSE,158,2.0,8.0,61,0.00,,---,0.00,VWS V14.01,2014-03-14 10:35:00,
2014-03-14 06:40:00,28.0,16.3,29.93,SW,225,7.0,8.0,61,0.00,,---,0.00,VWS V14.01,2014-03-14 10:40:00,
2014-03-14 06:45:00,28.0,16.7,29.92,ESE,112,2.0,9.0,62,0.00,,---,0.00,VWS V14.01,2014-03-14 10:45:00,
2014-03-14 06:50:00,28.0,16.3,29.92,WNW,292,1.0,11.0,61,0.00,,---,0.00,VWS V14.01,2014-03-14 10:50:00,
2014-03-14 06:55:00,28.0,16.7,29.93,NW,315,2.0,11.0,62,0.00,,---,0.00,VWS V14.01,2014-03-14 10:55:00,
2014-03-14 07:00:00,28.0,16.7,29.92,SW,225,4.0,4.0,62,0.00,,---,0.00,VWS V14.01,2014-03-14 11:00:00,
2014-03-14 07:06:00,28.0,16.3,29.92,NE,45,1.0,13.0,61,0.00,,---,0.00,VWS V14.01,2014-03-14 11:06:00,
2014-03-14 07:11:00,28.0,16.7,29.92,West,270,1.0,13.0,62,0.00,,---,0.00,VWS V14.01,2014-03-14 11:11:00,
2014-03-14 07:16:00,28.0,16.3,29.92,WNW,292,3.0,13.0,61,0.00,,---,0.00,VWS V14.01,2014-03-14 11:16:00,
2014-03-14 07:21:00,28.0,16.7,29.92,WSW,248,3.0,5.0,62,0.00,,---,0.00,VWS V14.01,2014-03-14 11:21:00,
2014-03-14 07:26:00,28.0,16.7,29.92,SSW,202,3.0,10.0,62,0.00,,---,0.00,VWS V14.01,2014-03-14 11:26:00,
2014-03-14 07:31:00,28.0,16.7,29.91,West,270,3.0,10.0,62,0.00,,---,0.00,VWS V14.01,2014-03-14 11:31:00,
2014-03-14 07:36:00,28.0,16.7,29.92,SW,225,1.0,10.0,62,0.00,,---,0.00,VWS V14.01,2014-03-14 11:36:00,
2014-03-14 07:41:00,28.0,16.7,29.91,South,180,3.0,10.0,62,0.00,,---,0.00,VWS V14.01,2014-03-14 11:41:00,
2014-03-14 07:46:00,28.0,16.7,29.91,East,90,1.0,10.0,62,0.00,,---,0.00,VWS V14.01,2014-03-14 11:46:00,
2014-03-14 07:51:00,28.0,16.7,29.92,SSW,202,3.0,10.0,62,0.00,,---,0.00,VWS V14.01,2014-03-14 11:51:00,
2014-03-14 07:57:00,28.0,16.7,29.91,SSE,158,4.0,10.0,62,0.00,,---,0.00,VWS V14.01,2014-03-14 11:57:00,
2014-03-14 08:02:00,28.0,16.7,29.92,South,180,1.0,1.0,62,0.00,,---,0.00,VWS V14.01,2014-03-14 12:02:00,
2014-03-14 08:07:00,28.0,16.7,29.92,SSW,202,1.0,5.0,62,0.00,,---,0.00,VWS V14.01,2014-03-14 12:07:00,
2014-03-14 08:12:00,28.0,16.7,29.91,South,180,5.0,7.0,62,0.00,,---,0.00,VWS V14.01,2014-03-14 12:12:00,
2014-03-14 08:17:00,28.0,16.7,29.91,South,180,10.0,10.0,62,0.00,,---,0.00,VWS V14.01,2014-03-14 12:17:00,
2014-03-14 08:22:00,29.0,17.6,29.91,WSW,248,1.0,5.0,62,0.00,,---,0.00,VWS V14.01,2014-03-14 12:22:00,
2014-03-14 08:27:00,29.0,17.6,29.91,SW,225,2.0,7.0,62,0.00,,---,0.00,VWS V14.01,2014-03-14 12:27:00,
2014-03-14 08:32:00,29.0,17.6,29.91,WSW,248,2.0,7.0,62,0.00,,---,0.00,VWS V14.01,2014-03-14 12:32:00,
2014-03-14 08:37:00,29.0,17.6,29.91,WNW,292,3.0,10.0,62,0.00,,---,0.00,VWS V14.01,2014-03-14 12:37:00,
2014-03-14 08:43:00,30.0,18.2,29.90,SSW,202,3.0,10.0,61,0.00,,---,0.00,VWS V14.01,2014-03-14 12:43:00,
2014-03-14 08:48:00,30.0,17.8,29.90,SSE,158,8.0,13.0,60,0.00,,---,0.00,VWS V14.01,2014-03-14 12:48:00,
2014-03-14 08:53:00,30.0,17.8,29.90,SSE,158,6.0,13.0,60,0.00,,---,0.00,VWS V14.01,2014-03-14 12:53:00,
2014-03-14 08:58:00,30.0,17.8,29.90,SW,225,6.0,13.0,60,0.00,,---,0.00,VWS V14.01,2014-03-14 12:58:00,
2014-03-14 09:03:00,31.0,18.4,29.90,SW,225,3.0,10.0,59,0.00,,---,0.00,VWS V14.01,2014-03-14 13:03:00,
2014-03-14 09:08:00,31.0,18.4,29.90,SSE,158,3.0,14.0,59,0.00,,---,0.00,VWS V14.01,2014-03-14 13:08:00,
2014-03-14 09:13:00,31.0,18.4,29.90,South,180,10.0,14.0,59,0.00,,---,0.00,VWS V14.01,2014-03-14 13:13:00,
2014-03-14 09:18:00,31.0,18.4,29.90,SSW,202,3.0,14.0,59,0.00,,---,0.00,VWS V14.01,2014-03-14 13:18:00,
2014-03-14 09:23:00,32.0,19.3,29.89,SW,225,3.0,13.0,59,0.00,,---,0.00,VWS V14.01,2014-03-14 13:23:00,
2014-03-14 09:28:00,32.0,18.9,29.89,SE,135,6.0,18.0,58,0.00,,---,0.00,VWS V14.01,2014-03-14 13:28:00,
2014-03-14 09:34:00,32.0,18.9,29.89,SSE,158,5.0,18.0,58,0.00,,---,0.00,VWS V14.01,2014-03-14 13:34:00,
2014-03-14 09:39:00,33.0,19.9,29.89,SSW,202,8.0,18.0,58,0.00,,---,0.00,VWS V14.01,2014-03-14 13:39:00,
2014-03-14 09:44:00,33.0,19.4,29.88,South,180,2.0,8.0,57,0.00,,---,0.00,VWS V14.01,2014-03-14 13:44:00,
2014-03-14 09:49:00,34.0,20.8,29.88,SSW,202,9.0,12.0,58,0.00,,---,0.00,VWS V14.01,2014-03-14 13:49:00,
2014-03-14 09:54:00,34.0,20.4,29.88,South,180,5.0,13.0,57,0.00,,---,0.00,VWS V14.01,2014-03-14 13:54:00,
2014-03-14 09:59:00,35.0,20.5,29.88,SSW,202,11.0,14.0,55,0.00,,---,0.00,VWS V14.01,2014-03-14 13:59:00,
2014-03-14 10:04:00,35.0,20.9,29.88,WSW,248,12.0,13.0,56,0.00,,---,0.00,VWS V14.01,2014-03-14 14:04:00,
2014-03-14 10:09:00,36.0,21.4,29.87,ESE,112,1.0,13.0,55,0.00,,---,0.00,VWS V14.01,2014-03-14 14:09:00,
2014-03-14 10:14:00,36.0,21.0,29.87,SW,225,10.0,17.0,54,0.00,,---,0.00,VWS V14.01,2014-03-14 14:14:00,
2014-03-14 10:20:00,37.0,21.5,29.87,SSW,202,12.0,17.0,53,0.00,,---,0.00,VWS V14.01,2014-03-14 14:20:00,
2014-03-14 10:25:00,37.0,21.5,29.87,South,180,13.0,15.0,53,0.00,,---,0.00,VWS V14.01,2014-03-14 14:25:00,
2014-03-14 10:30:00,38.0,22.4,29.86,WSW,248,8.0,20.0,53,0.00,,---,0.00,VWS V14.01,2014-03-14 14:30:00,
2014-03-14 10:35:00,38.0,22.0,29.86,SW,225,14.0,20.0,52,0.00,,---,0.00,VWS V14.01,2014-03-14 14:35:00,
2014-03-14 10:40:00,38.0,22.0,29.86,SSW,202,6.0,6.0,52,0.00,,---,0.00,VWS V14.01,2014-03-14 14:40:00,
2014-03-14 10:45:00,38.0,21.5,29.85,SSW,202,12.0,21.0,51,0.00,,---,0.00,VWS V14.01,2014-03-14 14:45:00,
2014-03-14 10:50:00,39.0,22.4,29.86,SW,225,10.0,21.0,51,0.00,,---,0.00,VWS V14.01,2014-03-14 14:50:00,
2014-03-14 10:55:00,39.0,22.4,29.85,SSW,202,13.0,21.0,51,0.00,,---,0.00,VWS V14.01,2014-03-14 14:55:00,
2014-03-14 11:00:00,40.0,23.4,29.85,SSW,202,13.0,16.0,51,0.00,,---,0.00,VWS V14.01,2014-03-14 15:00:00,
2014-03-14 11:06:00,40.0,22.9,29.84,SSW,202,9.0,17.0,50,0.00,,---,0.00,VWS V14.01,2014-03-14 15:06:00,
2014-03-14 11:11:00,40.0,22.9,29.84,SW,225,5.0,18.0,50,0.00,,---,0.00,VWS V14.01,2014-03-14 15:11:00,
2014-03-14 11:16:00,41.0,23.3,29.83,SSW,202,5.0,20.0,49,0.00,,---,0.00,VWS V14.01,2014-03-14 15:16:00,
2014-03-14 11:21:00,41.0,23.3,29.83,SW,225,13.0,14.0,49,0.00,,---,0.00,VWS V14.01,2014-03-14 15:21:00,
2014-03-14 11:26:00,41.0,23.3,29.83,SSW,202,12.0,17.0,49,0.00,,---,0.00,VWS V14.01,2014-03-14 15:26:00,
2014-03-14 11:31:00,42.0,24.2,29.83,SW,225,8.0,23.0,49,0.00,,---,0.00,VWS V14.01,2014-03-14 15:31:00,
2014-03-14 11:36:00,42.0,23.8,29.83,South,180,6.0,23.0,48,0.00,,---,0.00,VWS V14.01,2014-03-14 15:36:00,
2014-03-14 11:41:00,42.0,23.8,29.82,South,180,9.0,16.0,48,0.00,,---,0.00,VWS V14.01,2014-03-14 15:41:00,
2014-03-14 11:46:00,42.0,23.2,29.82,SSW,202,12.0,19.0,47,0.00,,---,0.00,VWS V14.01,2014-03-14 15:46:00,
2014-03-14 11:52:00,43.0,24.7,29.82,SSW,202,15.0,19.0,48,0.03,,---,0.03,VWS V14.01,2014-03-14 15:52:00,
2014-03-14 11:57:00,43.0,24.2,29.82,South,180,8.0,25.0,47,0.06,,---,0.06,VWS V14.01,2014-03-14 15:57:00,
2014-03-14 12:02:00,44.0,25.1,29.82,SSW,202,13.0,15.0,47,0.09,,---,0.09,VWS V14.01,2014-03-14 16:02:00,
2014-03-14 12:07:00,44.0,25.1,29.82,SSW,202,5.0,21.0,47,0.11,,---,0.11,VWS V14.01,2014-03-14 16:07:00,
2014-03-14 12:12:00,44.0,24.6,29.83,South,180,15.0,21.0,46,0.13,,---,0.13,VWS V14.01,2014-03-14 16:12:00,
2014-03-14 12:17:00,45.0,25.5,29.81,SW,225,4.0,21.0,46,0.15,,---,0.15,VWS V14.01,2014-03-14 16:17:00,
2014-03-14 12:22:00,45.0,25.5,29.81,South,180,10.0,19.0,46,0.17,,---,0.17,VWS V14.01,2014-03-14 16:22:00,
2014-03-14 12:27:00,45.0,25.5,29.80,WSW,248,5.0,26.0,46,0.18,,---,0.18,VWS V14.01,2014-03-14 16:27:00,
2014-03-14 12:32:00,45.0,25.0,29.80,SSW,202,14.0,26.0,45,0.18,,---,0.18,VWS V14.01,2014-03-14 16:32:00,
2014-03-14 12:37:00,46.0,25.9,29.80,South,180,13.0,26.0,45,0.18,,---,0.18,VWS V14.01,2014-03-14 16:37:00,
2014-03-14 12:43:00,46.0,25.3,29.79,WSW,248,14.0,23.0,44,0.19,,---,0.19,VWS V14.01,2014-03-14 16:43:00,
2014-03-14 12:48:00,46.0,26.4,29.79,SW,225,12.0,23.0,46,0.19,,---,0.19,VWS V14.01,2014-03-14 16:48:00,
2014-03-14 12:53:00,47.0,27.3,29.79,SE,135,11.0,23.0,46,0.19,,---,0.19,VWS V14.01,2014-03-14 16:53:00,
2014-03-14 12:58:00,47.0,26.2,29.79,SW,225,9.0,23.0,44,0.19,,---,0.19,VWS V14.01,2014-03-14 16:58:00,
2014-03-14 13:03:00,47.0,26.2,29.79,South,180,8.0,16.0,44,0.11,,---,0.19,VWS V14.01,2014-03-14 17:03:00,
2014-03-14 13:08:00,48.0,27.1,29.79,WSW,248,9.0,17.0,44,0.11,,---,0.19,VWS V14.01,2014-03-14 17:08:00,
2014-03-14 13:13:00,48.0,26.6,29.79,South,180,12.0,19.0,43,0.11,,---,0.19,VWS V14.01,2014-03-14 17:13:00,
2014-03-14 13:19:00,48.0,26.6,29.78,South,180,12.0,19.0,43,0.11,,---,0.19,VWS V14.01,2014-03-14 17:19:00,
2014-03-14 13:24:00,48.0,26.0,29.77,SW,225,17.0,24.0,42,0.03,,---,0.19,VWS V14.01,2014-03-14 17:24:00,
2014-03-14 13:29:00,48.0,26.6,29.77,SW,225,17.0,24.0,43,0.03,,---,0.19,VWS V14.01,2014-03-14 17:29:00,
2014-03-14 13:34:00,48.0,26.6,29.77,SW,225,13.0,24.0,43,0.03,,---,0.19,VWS V14.01,2014-03-14 17:34:00,
2014-03-14 13:39:00,48.0,26.0,29.76,SSW,202,13.0,24.0,42,0.03,,---,0.19,VWS V14.01,2014-03-14 17:39:00,
2014-03-14 13:44:00,48.0,26.0,29.77,SSE,158,7.0,18.0,42,0.00,,---,0.19,VWS V14.01,2014-03-14 17:44:00,
2014-03-14 13:49:00,48.0,26.0,29.76,SW,225,12.0,22.0,42,0.00,,---,0.19,VWS V14.01,2014-03-14 17:49:00,
2014-03-14 13:54:00,49.0,28.0,29.76,SW,225,11.0,22.0,44,0.00,,---,0.19,VWS V14.01,2014-03-14 17:54:00,
2014-03-14 14:00:00,49.0,26.3,29.76,SW,225,8.0,22.0,41,0.00,,---,0.19,VWS V14.01,2014-03-14 18:00:00,
2014-03-14 14:05:00,49.0,26.3,29.75,SSE,158,8.0,18.0,41,0.00,,---,0.19,VWS V14.01,2014-03-14 18:05:00,
2014-03-14 14:10:00,49.0,26.9,29.75,SW,225,8.0,19.0,42,0.00,,---,0.19,VWS V14.01,2014-03-14 18:10:00,
2014-03-14 14:15:00,50.0,27.2,29.74,South,180,11.0,19.0,41,0.00,,---,0.19,VWS V14.01,2014-03-14 18:15:00,
2014-03-14 14:20:00,50.0,27.8,29.75,SSW,202,16.0,20.0,42,0.00,,---,0.19,VWS V14.01,2014-03-14 18:20:00,
2014-03-14 14:25:00,50.0,27.2,29.74,South,180,12.0,18.0,41,0.00,,---,0.19,VWS V14.01,2014-03-14 18:25:00,
2014-03-14 14:30:00,50.0,26.6,29.74,SSW,202,8.0,20.0,40,0.00,,---,0.19,VWS V14.01,2014-03-14 18:30:00,
2014-03-14 14:35:00,51.0,27.5,29.74,South,180,14.0,24.0,40,0.00,,---,0.19,VWS V14.01,2014-03-14 18:35:00,
2014-03-14 14:40:00,51.0,26.9,29.73,SW,225,12.0,12.0,39,0.00,,---,0.19,VWS V14.01,2014-03-14 18:40:00,
2014-03-14 14:45:00,52.0,29.0,29.73,South,180,7.0,13.0,41,0.00,,---,0.19,VWS V14.01,2014-03-14 18:45:00,
2014-03-14 14:51:00,52.0,28.5,29.73,SW,225,7.0,24.0,40,0.00,,---,0.19,VWS V14.01,2014-03-14 18:51:00,
2014-03-14 14:56:00,52.0,28.5,29.72,SW,225,8.0,24.0,40,0.00,,---,0.19,VWS V14.01,2014-03-14 18:56:00,
2014-03-14 15:01:00,53.0,28.7,29.71,SW,225,10.0,15.0,39,0.00,,---,0.19,VWS V14.01,2014-03-14 19:01:00,
2014-03-14 15:06:00,53.0,28.1,29.71,SW,225,11.0,18.0,38,0.00,,---,0.19,VWS V14.01,2014-03-14 19:06:00,
2014-03-14 15:11:00,53.0,28.1,29.70,South,180,13.0,21.0,38,0.00,,---,0.19,VWS V14.01,2014-03-14 19:11:00,
2014-03-14 15:16:00,54.0,29.0,29.69,SW,225,8.0,21.0,38,0.00,,---,0.19,VWS V14.01,2014-03-14 19:16:00,
2014-03-14 15:21:00,53.0,28.1,29.69,SSW,202,13.0,15.0,38,0.00,,---,0.19,VWS V14.01,2014-03-14 19:21:00,
2014-03-14 15:26:00,53.0,27.4,29.69,SSW,202,13.0,29.0,37,0.00,,---,0.19,VWS V14.01,2014-03-14 19:26:00,
2014-03-14 15:31:00,54.0,28.3,29.69,South,180,10.0,29.0,37,0.00,,---,0.19,VWS V14.01,2014-03-14 19:31:00,
2014-03-14 15:36:00,55.0,30.5,29.69,SSW,202,13.0,29.0,39,0.00,,---,0.19,VWS V14.01,2014-03-14 19:36:00,
2014-03-14 15:42:00,54.0,28.3,29.69,WSW,248,19.0,23.0,37,0.00,,---,0.19,VWS V14.01,2014-03-14 19:42:00,
2014-03-14 15:47:00,54.0,27.7,29.69,WSW,248,13.0,26.0,36,0.00,,---,0.19,VWS V14.01,2014-03-14 19:47:00,
2014-03-14 15:52:00,55.0,29.2,29.69,WSW,248,24.0,26.0,37,0.00,,---,0.19,VWS V14.01,2014-03-14 19:52:00,
2014-03-14 15:57:00,55.0,28.6,29.68,SSW,202,13.0,26.0,36,0.00,,---,0.19,VWS V14.01,2014-03-14 19:57:00,
2014-03-14 16:02:00,56.0,29.4,29.68,WSW,248,9.0,15.0,36,0.00,,---,0.19,VWS V14.01,2014-03-14 20:02:00,
2014-03-14 16:07:00,56.0,29.4,29.68,SW,225,6.0,21.0,36,0.00,,---,0.19,VWS V14.01,2014-03-14 20:07:00,
2014-03-14 16:12:00,56.0,28.8,29.67,West,270,17.0,23.0,35,0.00,,---,0.19,VWS V14.01,2014-03-14 20:12:00,
2014-03-14 16:17:00,56.0,28.0,29.67,SW,225,13.0,23.0,34,0.00,,---,0.19,VWS V14.01,2014-03-14 20:17:00,
2014-03-14 16:22:00,56.0,28.0,29.67,SW,225,13.0,22.0,34,0.00,,---,0.19,VWS V14.01,2014-03-14 20:22:00,
2014-03-14 16:28:00,56.0,28.0,29.67,SSW,202,15.0,22.0,34,0.00,,---,0.19,VWS V14.01,2014-03-14 20:28:00,
2014-03-14 16:33:00,56.0,28.8,29.66,WSW,248,16.0,24.0,35,0.00,,---,0.19,VWS V14.01,2014-03-14 20:33:00,
2014-03-14 16:38:00,56.0,28.8,29.66,SW,225,8.0,24.0,35,0.00,,---,0.19,VWS V14.01,2014-03-14 20:38:00,
2014-03-14 16:43:00,57.0,30.3,29.66,West,270,10.0,18.0,36,0.00,,---,0.19,VWS V14.01,2014-03-14 20:43:00,
2014-03-14 16:48:00,56.0,29.4,29.66,WSW,248,6.0,23.0,36,0.00,,---,0.19,VWS V14.01,2014-03-14 20:48:00,
2014-03-14 16:53:00,56.0,29.4,29.66,SSW,202,8.0,24.0,36,0.00,,---,0.19,VWS V14.01,2014-03-14 20:53:00,
2014-03-14 16:58:00,56.0,29.4,29.65,WSW,248,14.0,24.0,36,0.00,,---,0.19,VWS V14.01,2014-03-14 20:58:00,
2014-03-14 17:03:00,56.0,29.4,29.65,SW,225,13.0,26.0,36,0.00,,---,0.19,VWS V14.01,2014-03-14 21:03:00,
2014-03-14 17:08:00,56.0,28.8,29.65,SW,225,10.0,27.0,35,0.00,,---,0.19,VWS V14.01,2014-03-14 21:08:00,
2014-03-14 17:13:00,56.0,29.4,29.65,SSW,202,13.0,27.0,36,0.00,,---,0.19,VWS V14.01,2014-03-14 21:13:00,
2014-03-14 17:19:00,56.0,29.4,29.65,SW,225,7.0,27.0,36,0.00,,---,0.19,VWS V14.01,2014-03-14 21:19:00,
2014-03-14 17:24:00,55.0,29.2,29.64,SW,225,5.0,25.0,37,0.00,,---,0.19,VWS V14.01,2014-03-14 21:24:00,
2014-03-14 17:29:00,55.0,29.2,29.64,SW,225,12.0,25.0,37,0.00,,---,0.19,VWS V14.01,2014-03-14 21:29:00,
2014-03-14 17:34:00,55.0,29.2,29.64,SW,225,8.0,26.0,37,0.00,,---,0.19,VWS V14.01,2014-03-14 21:34:00,
2014-03-14 17:39:00,56.0,30.1,29.64,SW,225,7.0,26.0,37,0.00,,---,0.19,VWS V14.01,2014-03-14 21:39:00,
2014-03-14 17:44:00,56.0,30.1,29.64,WSW,248,14.0,18.0,37,0.00,,---,0.19,VWS V14.01,2014-03-14 21:44:00,
2014-03-14 17:49:00,55.0,29.2,29.64,SW,225,14.0,28.0,37,0.00,,---,0.19,VWS V14.01,2014-03-14 21:49:00,
2014-03-14 17:54:00,55.0,29.2,29.64,SW,225,13.0,28.0,37,0.00,,---,0.19,VWS V14.01,2014-03-14 21:54:00,
2014-03-14 17:59:00,55.0,29.2,29.64,SW,225,13.0,28.0,37,0.00,,---,0.19,VWS V14.01,2014-03-14 21:59:00,
2014-03-14 18:04:00,55.0,29.9,29.64,WSW,248,18.0,18.0,38,0.00,,---,0.19,VWS V14.01,2014-03-14 22:04:00,
2014-03-14 18:10:00,55.0,29.9,29.64,South,180,6.0,21.0,38,0.00,,---,0.19,VWS V14.01,2014-03-14 22:10:00,
2014-03-14 18:15:00,55.0,30.5,29.64,WSW,248,9.0,21.0,39,0.00,,---,0.19,VWS V14.01,2014-03-14 22:15:00,
2014-03-14 18:20:00,55.0,30.5,29.63,SSW,202,8.0,21.0,39,0.00,,---,0.19,VWS V14.01,2014-03-14 22:20:00,
2014-03-14 18:25:00,55.0,30.5,29.63,SW,225,5.0,15.0,39,0.00,,---,0.19,VWS V14.01,2014-03-14 22:25:00,
2014-03-14 18:30:00,55.0,29.9,29.63,South,180,11.0,18.0,38,0.00,,---,0.19,VWS V14.01,2014-03-14 22:30:00,
2014-03-14 18:35:00,54.0,29.0,29.62,SW,225,10.0,18.0,38,0.00,,---,0.19,VWS V14.01,2014-03-14 22:35:00,
2014-03-14 18:40:00,54.0,29.6,29.62,SW,225,12.0,18.0,39,0.00,,---,0.19,VWS V14.01,2014-03-14 22:40:00,
2014-03-14 18:45:00,54.0,30.2,29.62,SSW,202,7.0,13.0,40,0.00,,---,0.19,VWS V14.01,2014-03-14 22:45:00,
2014-03-14 18:50:00,54.0,30.2,29.62,SW,225,4.0,13.0,40,0.00,,---,0.19,VWS V14.01,2014-03-14 22:50:00,
2014-03-14 18:55:00,54.0,29.6,29.62,South,180,3.0,14.0,39,0.00,,---,0.19,VWS V14.01,2014-03-14 22:55:00,
2014-03-14 19:01:00,54.0,30.2,29.63,SSW,202,5.0,10.0,40,0.00,,---,0.19,VWS V14.01,2014-03-14 23:01:00,
2014-03-14 19:06:00,54.0,30.2,29.63,SSW,202,14.0,18.0,40,0.00,,---,0.19,VWS V14.01,2014-03-14 23:06:00,
2014-03-14 19:11:00,54.0,30.2,29.63,South,180,9.0,18.0,40,0.00,,---,0.19,VWS V14.01,2014-03-14 23:11:00,
2014-03-14 19:16:00,53.0,29.3,29.63,SW,225,5.0,18.0,40,0.00,,---,0.19,VWS V14.01,2014-03-14 23:16:00,
2014-03-14 19:21:00,53.0,30.0,29.63,WSW,248,10.0,11.0,41,0.00,,---,0.19,VWS V14.01,2014-03-14 23:21:00,
2014-03-14 19:26:00,53.0,30.0,29.63,SSW,202,5.0,14.0,41,0.00,,---,0.19,VWS V14.01,2014-03-14 23:26:00,
2014-03-14 19:31:00,53.0,30.0,29.63,SSW,202,8.0,14.0,41,0.00,,---,0.19,VWS V14.01,2014-03-14 23:31:00,
2014-03-14 19:36:00,53.0,30.0,29.63,South,180,9.0,14.0,41,0.00,,---,0.19,VWS V14.01,2014-03-14 23:36:00,
2014-03-14 19:41:00,53.0,30.0,29.64,South,180,6.0,11.0,41,0.00,,---,0.19,VWS V14.01,2014-03-14 23:41:00,
2014-03-14 19:46:00,53.0,29.3,29.64,SW,225,12.0,14.0,40,0.00,,---,0.19,VWS V14.01,2014-03-14 23:46:00,
2014-03-14 19:51:00,53.0,30.0,29.64,SW,225,6.0,14.0,41,0.00,,---,0.19,VWS V14.01,2014-03-14 23:51:00,
2014-03-14 19:56:00,53.0,30.0,29.64,SSW,202,5.0,15.0,41,0.00,,---,0.19,VWS V14.01,2014-03-14 23:56:00,
2014-03-14 20:02:00,53.0,30.0,29.64,South,180,7.0,8.0,41,0.00,,---,0.19,VWS V14.01,2014-03-15 00:02:00,
2014-03-14 20:07:00,54.0,30.2,29.64,SW,225,8.0,19.0,40,0.00,,---,0.19,VWS V14.01,2014-03-15 00:07:00,
2014-03-14 20:12:00,53.0,30.0,29.64,WSW,248,4.0,19.0,41,0.00,,---,0.19,VWS V14.01,2014-03-15 00:12:00,
2014-03-14 20:17:00,53.0,30.0,29.64,SW,225,3.0,19.0,41,0.00,,---,0.19,VWS V14.01,2014-03-15 00:17:00,
2014-03-14 20:22:00,53.0,30.0,29.64,SSW,202,10.0,13.0,41,0.00,,---,0.19,VWS V14.01,2014-03-15 00:22:00,
2014-03-14 20:27:00,53.0,30.0,29.63,SW,225,14.0,19.0,41,0.00,,---,0.19,VWS V14.01,2014-03-15 00:27:00,
2014-03-14 20:32:00,53.0,30.0,29.63,SSW,202,6.0,21.0,41,0.00,,---,0.19,VWS V14.01,2014-03-15 00:32:00,
2014-03-14 20:37:00,53.0,30.0,29.63,SW,225,5.0,21.0,41,0.00,,---,0.19,VWS V14.01,2014-03-15 00:37:00,
2014-03-14 20:42:00,53.0,30.5,29.63,SSW,202,6.0,13.0,42,0.00,,---,0.19,VWS V14.01,2014-03-15 00:42:00,
2014-03-14 20:47:00,53.0,30.5,29.63,SW,225,11.0,14.0,42,0.00,,---,0.19,VWS V14.01,2014-03-15 00:47:00,
2014-03-14 20:52:00,53.0,30.5,29.63,SW,225,11.0,14.0,42,0.00,,---,0.19,VWS V14.01,2014-03-15 00:52:00,
2014-03-14 20:58:00,53.0,30.5,29.62,South,180,8.0,15.0,42,0.00,,---,0.19,VWS V14.01,2014-03-15 00:58:00,
2014-03-14 21:03:00,53.0,30.5,29.62,SW,225,10.0,15.0,42,0.00,,---,0.19,VWS V14.01,2014-03-15 01:03:00,
2014-03-14 21:08:00,53.0,30.5,29.62,South,180,6.0,15.0,42,0.00,,---,0.19,VWS V14.01,2014-03-15 01:08:00,
2014-03-14 21:13:00,53.0,30.5,29.61,SW,225,8.0,15.0,42,0.00,,---,0.19,VWS V14.01,2014-03-15 01:13:00,
2014-03-14 21:18:00,53.0,30.5,29.61,South,180,5.0,16.0,42,0.00,,---,0.19,VWS V14.01,2014-03-15 01:18:00,
2014-03-14 21:23:00,53.0,30.5,29.61,SSW,202,10.0,18.0,42,0.00,,---,0.19,VWS V14.01,2014-03-15 01:23:00,
2014-03-14 21:28:00,53.0,30.5,29.61,West,270,8.0,18.0,42,0.00,,---,0.19,VWS V14.01,2014-03-15 01:28:00,
2014-03-14 21:33:00,53.0,31.1,29.61,SW,225,7.0,18.0,43,0.00,,---,0.19,VWS V14.01,2014-03-15 01:33:00,
2014-03-14 21:38:00,53.0,30.5,29.61,WSW,248,4.0,21.0,42,0.00,,---,0.19,VWS V14.01,2014-03-15 01:38:00,
2014-03-14 21:43:00,53.0,31.1,29.61,SW,225,6.0,15.0,43,0.00,,---,0.19,VWS V14.01,2014-03-15 01:43:00,
2014-03-14 21:48:00,53.0,30.5,29.61,SW,225,14.0,19.0,42,0.00,,---,0.19,VWS V14.01,2014-03-15 01:48:00,
2014-03-14 21:53:00,53.0,31.1,29.62,WSW,248,11.0,25.0,43,0.00,,---,0.19,VWS V14.01,2014-03-15 01:53:00,
2014-03-14 21:59:00,53.0,31.1,29.62,WSW,248,7.0,26.0,43,0.00,,---,0.19,VWS V14.01,2014-03-15 01:59:00,
2014-03-14 22:04:00,53.0,31.7,29.62,SSE,158,14.0,25.0,44,0.00,,---,0.19,VWS V14.01,2014-03-15 02:04:00,
2014-03-14 22:09:00,53.0,31.7,29.62,SW,225,15.0,36.0,44,0.00,,---,0.19,VWS V14.01,2014-03-15 02:09:00,
2014-03-14 22:14:00,53.0,31.7,29.63,WSW,248,13.0,36.0,44,0.00,,---,0.19,VWS V14.01,2014-03-15 02:14:00,
2014-03-14 22:19:00,52.0,32.4,29.63,SW,225,8.0,36.0,47,0.00,,---,0.19,VWS V14.01,2014-03-15 02:19:00,
2014-03-14 22:24:00,52.0,32.9,29.63,WSW,248,18.0,21.0,48,0.00,,---,0.19,VWS V14.01,2014-03-15 02:24:00,
2014-03-14 22:29:00,52.0,34.0,29.63,WSW,248,11.0,21.0,50,0.00,,---,0.19,VWS V14.01,2014-03-15 02:29:00,
2014-03-14 22:34:00,51.0,33.5,29.63,WNW,292,11.0,21.0,51,0.00,,---,0.19,VWS V14.01,2014-03-15 02:34:00,
2014-03-14 22:39:00,51.0,35.4,29.63,West,270,13.0,29.0,55,0.00,,---,0.19,VWS V14.01,2014-03-15 02:39:00,
2014-03-14 22:44:00,50.0,35.4,29.64,West,270,16.0,32.0,57,0.00,,---,0.19,VWS V14.01,2014-03-15 02:44:00,
2014-03-14 22:49:00,50.0,36.2,29.64,WSW,248,12.0,34.0,59,0.00,,---,0.19,VWS V14.01,2014-03-15 02:49:00,
2014-03-14 22:54:00,50.0,36.7,29.64,WSW,248,13.0,34.0,60,0.00,,---,0.19,VWS V14.01,2014-03-15 02:54:00,
2014-03-14 23:00:00,49.0,37.8,29.65,West,270,14.0,34.0,65,0.00,,---,0.19,VWS V14.01,2014-03-15 03:00:00,
2014-03-14 23:05:00,48.0,38.7,29.65,West,270,13.0,37.0,70,0.00,,---,0.19,VWS V14.01,2014-03-15 03:05:00,
2014-03-14 23:10:00,47.0,38.8,29.65,WNW,292,16.0,37.0,73,0.01,,---,0.20,VWS V14.01,2014-03-15 03:10:00,
2014-03-14 23:15:00,47.0,40.2,29.65,West,270,14.0,37.0,77,0.01,,---,0.20,VWS V14.01,2014-03-15 03:15:00,
2014-03-14 23:20:00,46.0,40.2,29.65,WNW,292,13.0,37.0,80,0.01,,---,0.20,VWS V14.01,2014-03-15 03:20:00,
2014-03-14 23:25:00,45.0,40.2,29.65,NW,315,11.0,25.0,83,0.02,,---,0.21,VWS V14.01,2014-03-15 03:25:00,
2014-03-14 23:30:00,45.0,40.8,29.65,West,270,19.0,25.0,85,0.03,,---,0.22,VWS V14.01,2014-03-15 03:30:00,
2014-03-14 23:35:00,45.0,41.1,29.65,WSW,248,6.0,25.0,86,0.04,,---,0.23,VWS V14.01,2014-03-15 03:35:00,
2014-03-14 23:40:00,45.0,40.8,29.65,WSW,248,14.0,16.0,85,0.05,,---,0.24,VWS V14.01,2014-03-15 03:40:00,
2014-03-14 23:45:00,45.0,41.1,29.65,WSW,248,21.0,22.0,86,0.05,,---,0.24,VWS V14.01,2014-03-15 03:45:00,
2014-03-14 23:50:00,45.0,41.1,29.66,WSW,248,16.0,22.0,86,0.06,,---,0.25,VWS V14.01,2014-03-15 03:50:00,
2014-03-14 23:55:00,44.0,40.1,29.65,SW,225,14.0,26.0,86,0.06,,---,0.25,VWS V14.01,2014-03-15 03:55:00,